Location: �quirre
(50.4736°N, 2.2351°E)
Time: 21:45:23
(UTC+00:00)

Cosmos 1908 - Pass Details

Date: 07 August 2020
Orbit: 510 x 531 km, 82.5° (Epoch: 22 September)

Event Time Altitude Azimuth Distance (km) Brightness Sun altitude
Rises 03:38:44 0° 183° (S) 2,659 6.4 -7.5°
Reaches altitude 10° 03:40:52 10° 181° (S) 1,776 5.6 -7.2°
Maximum altitude 03:44:46 71° 97° (E) 567 3.6 -6.7°
Drops below altitude 10° 03:48:41 10° 14° (NNE) 1,795 6.8 -6.2°
Sets 03:50:51 0° 12° (NNE) 2,691 7.6 -5.9°
